[[{"header":{"parameterUnit":"m.s-1","parameterCategory":2,"la1":30.2991,"la2":30.254,"lo1":-89.0895,"lo2":-89.0444,"dy":0.0017,"dx":0.0017,"nx":28,"ny":28,"refTime":"2024-12-04T09:00:00:Z","depth":"0","parameterNumber":2,"parameterNumberName":"U-component_of_CURRENTS"},"data":[0,0,0,0,0,0,0,0,0,0,0,0,0,0,0,0,0,0,0,0,0,0,0,0,0,0,0,0,0,0,0,0,0,0,0,0,0,0,0,0,0,0,0,0,0,0,0,0,0,0,0,0,0,0,0,0,0,0,-0.2327,-0.2328,0,-0.2369,-0.2369,-0.2369,-0.2338,-0.2337,-0.2336,-0.2334,-0.231,-0.231,-0.231,0,0,0,0,0,0,0,0,0,0,0,0,0,-0.2221,-0.2223,-0.2327,-0.2328,-0.2329,-0.2369,-0.2369,-0.2369,-0.2338,-0.2337,-0.2335,-0.2334,-0.231,-0.231,-0.2311,0,0,0,0,0,0,0,0,0,0,0,0,0,-0.2263,-0.2224,-0.2327,-0.232,-0.232,-0.2368,-0.2369,-0.2369,-0.2338,-0.2337,-0.2335,-0.2333,-0.2309,-0.231,-0.2311,-0.2348,0,0,-0.2312,-0.2313,0,0,0,0,0,0,0,0,-0.2261,-0.2266,-0.232,-0.232,-0.2321,-0.2349,-0.2323,-0.236,-0.2339,-0.2328,-0.2334,-0.2333,-0.232,-0.2319,-0.2328,-0.2346,-0.2345,-0.2312,-0.2313,-0.2313,-0.2313,0,0,0,0,0,0,0,-0.2258,-0.2265,-0.2341,-0.2321,-0.2321,-0.2315,-0.2319,-0.233,-0.233,-0.2329,-0.2328,-0.2337,-0.2319,-0.2327,-0.2327,-0.2345,-0.2312,-0.2313,-0.2313,-0.2313,-0.2382,-0.2384,0,0,0,0,0,0,-0.226,-0.2262,-0.2339,-0.2342,-0.2289,-0.2318,-0.2322,-0.2339,-0.2331,-0.2329,-0.2339,-0.2336,-0.2327,-0.2326,-0.2326,-0.2351,-0.2313,-0.2313,-0.2314,-0.2381,-0.2383,-0.2384,0,0,0,0,0,0,-0.2258,-0.2267,-0.2338,-0.2304,-0.2313,-0.2322,-0.2341,-0.2341,-0.2343,-0.2339,-0.2335,-0.234,-0.2326,-0.2325,-0.2338,-0.235,-0.2314,-0.2314,-0.2379,-0.2381,-0.2383,-0.2413,0,0,0,0,0,0,-0.2255,-0.2266,-0.2275,-0.2305,-0.2315,-0.237,-0.2343,-0.2343,-0.2353,-0.2349,-0.2339,-0.2336,-0.2325,-0.2337,-0.2338,-0.235,-0.2315,-0.2377,-0.238,-0.2383,-0.241,-0.2416,-0.2421,0,0,0,0,0,-0.2251,-0.2276,-0.2276,-0.2285,-0.2329,-0.2372,-0.2377,-0.2375,-0.2354,-0.2367,-0.2358,-0.2336,-0.2355,-0.2339,-0.234,-0.2352,-0.2376,-0.2379,-0.2383,-0.2407,-0.2414,-0.242,0,0,0,0,0,0,-0.2234,-0.2277,-0.2276,-0.2312,-0.234,-0.2367,-0.2379,-0.2378,-0.2383,-0.2373,-0.2356,-0.2354,-0.237,-0.2365,-0.2347,-0.2383,-0.2362,-0.2366,-0.2381,-0.2387,-0.2392,-0.2384,-0.2315,0,0,0,0,0,-0.2237,-0.2263,-0.2302,-0.2327,-0.2344,-0.236,-0.2374,-0.2379,-0.2391,-0.239,-0.2384,-0.2381,-0.239,-0.2389,-0.2398,-0.2419,-0.2406,-0.2429,-0.2435,-0.2439,-0.2435,-0.2434,-0.2438,-0.2395,-0.2395,-0.2395,0,0,-0.2235,-0.2263,-0.2276,-0.2325,-0.2342,-0.2374,-0.2363,-0.2393,-0.241,-0.2388,-0.2401,-0.2402,-0.2402,-0.2423,-0.243,-0.2415,-0.2447,-0.2443,-0.2447,-0.244,-0.2438,-0.2442,-0.2445,-0.2398,-0.2397,-0.2397,0,0,-0.2248,-0.2272,-0.2297,-0.2327,-0.2366,-0.2384,-0.2393,-0.2425,-0.2427,-0.2453,-0.2439,-0.2447,-0.2461,-0.2462,-0.2464,-0.2508,-0.2479,-0.2513,-0.2526,-0.2526,-0.2529,-0.2532,-0.2524,-0.2526,-0.2511,-0.2511,-0.2511,0,-0.224,-0.228,-0.2311,-0.2345,-0.2365,-0.2388,-0.2416,-0.2437,-0.2465,-0.2469,-0.2458,-0.2481,-0.2478,-0.2499,-0.2511,-0.2518,-0.2509,-0.2498,-0.2531,-0.2533,-0.2535,-0.2527,-0.2528,-0.2513,-0.2513,-0.2513,-0.2512,0,-0.2273,-0.2304,-0.2324,-0.237,-0.2399,-0.2431,-0.2467,-0.2489,-0.2492,-0.2505,-0.2526,-0.253,-0.2536,-0.2545,-0.2538,-0.2557,-0.2545,-0.2539,-0.2508,-0.254,-0.2531,-0.2531,-0.2516,-0.2515,-0.2514,-0.2514,0,0,-0.2247,-0.2329,-0.2332,-0.2352,-0.2413,-0.2439,-0.2478,-0.2516,-0.2529,-0.2553,-0.2563,-0.2585,-0.2579,-0.2581,-0.2579,-0.258,-0.2587,-0.2563,-0.2562,-0.2544,-0.258,-0.2504,-0.2497,-0.2583,-0.2583,-0.2583,-0.2569,0,-0.2253,-0.2314,-0.2354,-0.2398,-0.2427,-0.2467,-0.2499,-0.2535,-0.2558,-0.2579,-0.2588,-0.2601,-0.2596,-0.2595,-0.2599,-0.2594,-0.259,-0.2591,-0.2561,-0.256,-0.2478,-0.2495,-0.2383,-0.2354,-0.2569,-0.2569,-0.2569,0,-0.2256,-0.2299,-0.2347,-0.2406,-0.2421,-0.2449,-0.2493,-0.2528,-0.2573,-0.2589,-0.2609,-0.2617,-0.2632,-0.2616,-0.2618,-0.2618,-0.2598,-0.259,-0.2589,-0.2504,-0.2485,-0.2357,-0.2346,-0.2327,-0.2569,-0.2569,-0.2569,0,-0.2205,-0.2282,-0.2315,-0.2339,-0.2417,-0.2434,-0.2467,-0.252,-0.2547,-0.2591,-0.2608,-0.263,-0.2635,-0.2628,-0.2614,-0.2615,-0.2604,-0.2604,-0.2516,-0.2511,-0.2401,-0.2385,-0.2353,-0.2591,-0.2591,-0.2591,-0.2592,0,-0.2188,-0.2208,-0.2293,-0.2311,-0.2338,-0.2401,-0.2429,-0.247,-0.2526,-0.2549,-0.26,-0.2615,-0.2637,-0.2636,-0.2619,-0.2565,-0.2607,-0.2514,-0.25,-0.2409,-0.2395,-0.236,-0.2386,-0.2591,-0.2591,-0.2591,-0.2591,0,-0.2117,-0.2181,-0.2216,-0.2296,-0.2315,-0.2328,-0.2399,-0.2425,-0.2488,-0.2521,-0.2534,-0.2601,-0.2598,-0.2607,-0.2595,-0.2558,-0.2476,-0.2489,-0.2377,-0.2349,-0.2235,-0.2267,-0.2228,-0.2166,-0.2389,-0.2387,-0.2386,0,-0.2084,-0.2099,-0.2181,-0.2207,-0.2239,-0.2277,-0.2306,-0.2383,-0.2414,-0.2501,-0.2506,-0.2538,-0.2526,-0.2494,-0.244,-0.2386,-0.2395,-0.2255,-0.2231,-0.2205,-0.2232,-0.2262,-0.2216,-0.2106,-0.2102,-0.2099,-0.2097,0,-0.2001,-0.2033,-0.2069,-0.2139,-0.2172,-0.2214,-0.2259,-0.2265,-0.2352,-0.2373,-0.24,-0.2401,-0.2389,-0.2291,-0.2236,-0.219,-0.2194,-0.2186,-0.2189,-0.2026,-0.2028,-0.1968,-0.2149,-0.2069,-0.2071,-0.2073,-0.2075,-0.2076,-0.1917,-0.1927,-0.1995,-0.2046,-0.2102,-0.2133,-0.2083,-0.2159,-0.2163,-0.2153,-0.2233,-0.2193,-0.2169,-0.2069,-0.2023,-0.191,-0.1984,-0.1856,-0.1904,-0.1943,-0.1857,-0.1969,-0.1854,-0.1855,-0.1857,-0.1858,-0.1859,0,-0.1799,-0.1844,-0.1902,-0.1938,-0.1944,-0.2024,-0.2036,-0.1963,-0.1906,-0.1963,-0.1947,-0.1923,-0.1828,-0.1822,-0.1737,-0.166,-0.1626,-0.1631,-0.1655,-0.1624,-0.1733,-0.1691,-0.1497,-0.1497,-0.1497,-0.1497,-0.1497,-0.1497,-0.1742,-0.1756,-0.1807,-0.1779,-0.1788,-0.1702,-0.1663,-0.161,-0.1609,-0.1554,-0.1562,-0.1619,-0.1646,-0.1766,-0.1655,-0.1567,-0.1543,-0.1491,-0.1537,-0.1628,-0.1653,-0.1677,-0.1642,-0.1441,-0.1441,-0.1349,-0.1349,-0.1348]},{"header":{"parameterUnit":"m.s-1","parameterCategory":2,"la1":30.2991,"la2":30.254,"lo1":-89.0895,"lo2":-89.0444,"dy":0.0017,"dx":0.0017,"nx":28,"ny":28,"refTime":"2024-12-04T09:00:00:Z","depth":"0","parameterNumber":3,"parameterNumberName":"V-component_of_CURRENTS"},"data":[0,0,0,0,0,0,0,0,0,0,0,0,0,0,0,0,0,0,0,0,0,0,0,0,0,0,0,0,0,0,0,0,0,0,0,0,0,0,0,0,0,0,0,0,0,0,0,0,0,0,0,0,0,0,0,0,0,0,-0.0037,-0.0037,0,0.0044,0.0046,0.0047,0.011,0.0111,0.0111,0.0111,0.0242,0.0245,0.0248,0,0,0,0,0,0,0,0,0,0,0,0,0,-0.0092,-0.0092,-0.0037,-0.0037,-0.0036,0.0044,0.0046,0.0047,0.011,0.0111,0.0111,0.0112,0.0241,0.0245,0.0248,0,0,0,0,0,0,0,0,0,0,0,0,0,-0.0043,-0.0092,-0.0038,0.0004,0.0008,0.0044,0.0046,0.0047,0.011,0.0111,0.0111,0.0112,0.024,0.0244,0.0249,0.0265,0,0,0.0263,0.0265,0,0,0,0,0,0,0,0,-0.0046,-0.0041,-0.0003,0.0001,0.0006,0.0066,0.0074,0.0122,0.011,0.0074,0.0111,0.0112,0.0186,0.0195,0.0211,0.0271,0.0277,0.0263,0.0266,0.0268,0.0269,0,0,0,0,0,0,0,-0.005,-0.0044,-0.0003,-0.0002,0.0003,0.0034,0.0042,0.0084,0.0128,0.0077,0.0081,0.0087,0.0189,0.0206,0.0215,0.0279,0.0263,0.0267,0.027,0.0272,0.037,0.037,0,0,0,0,0,0,-0.0067,-0.0048,-0.0005,-0.0001,-0.0022,0.0034,0.0043,0.0048,0.0126,0.0138,0.0086,0.0089,0.0198,0.0209,0.022,0.024,0.0268,0.0272,0.0275,0.037,0.037,0.0369,0,0,0,0,0,0,-0.0069,-0.0064,-0.0009,-0.0024,-0.0015,0.0034,0.004,0.0049,0.0067,0.0132,0.0146,0.0093,0.0199,0.0213,0.0252,0.0246,0.0275,0.0279,0.037,0.037,0.037,0.0283,0,0,0,0,0,0,-0.0071,-0.0066,-0.007,-0.0025,-0.0015,0.0002,0.0039,0.005,0.0068,0.0073,0.0143,0.0156,0.0201,0.0245,0.0257,0.0253,0.0282,0.037,0.037,0.037,0.0286,0.028,0.0275,0,0,0,0,0,-0.0073,-0.0085,-0.007,-0.0065,-0.0021,0.0001,0.0009,0.0048,0.0067,0.0068,0.0117,0.0154,0.0252,0.0248,0.0263,0.0259,0.0371,0.037,0.037,0.0289,0.0281,0.0275,0,0,0,0,0,0,-0.0111,-0.0079,-0.0061,-0.0063,-0.0038,0.0011,0.0013,0.0041,0.008,0.0087,0.0152,0.0167,0.0198,0.0241,0.0236,0.0287,0.0317,0.032,0.0251,0.0244,0.0239,0.0229,0.0286,0,0,0,0,0,-0.0123,-0.0123,-0.0086,-0.0088,-0.0078,-0.0033,-0.002,0.0006,0.0046,0.0064,0.0112,0.0165,0.0208,0.0234,0.0277,0.0305,0.0355,0.0313,0.0308,0.0302,0.0305,0.0365,0.0365,0.0368,0.0368,0.0368,0,0,-0.0139,-0.0121,-0.012,-0.0096,-0.0071,-0.0068,-0.0023,-0.0009,-0.0002,0.0072,0.0097,0.0144,0.021,0.0239,0.0258,0.0275,0.0328,0.0302,0.0296,0.0302,0.0365,0.0364,0.0364,0.0368,0.0368,0.0368,0,0,-0.0175,-0.0155,-0.0168,-0.0153,-0.0127,-0.0098,-0.0099,-0.0055,-0.0031,-0.0003,0.0051,0.0094,0.0157,0.0204,0.0236,0.0226,0.0291,0.0238,0.0206,0.0264,0.0264,0.0265,0.0324,0.0331,0.0239,0.0239,0.0239,0,-0.0197,-0.0205,-0.0169,-0.0178,-0.0172,-0.0117,-0.013,-0.0099,-0.0048,-0.0026,-0.0008,0.0093,0.0142,0.0191,0.0186,0.0212,0.0257,0.0223,0.0255,0.0257,0.026,0.0321,0.033,0.0235,0.0235,0.0236,0.0236,0,-0.024,-0.0247,-0.0255,-0.0247,-0.0235,-0.0237,-0.0194,-0.0174,-0.0138,-0.0098,-0.0046,0.0025,0.0087,0.0106,0.0144,0.0184,0.0215,0.0235,0.0269,0.0254,0.032,0.033,0.0229,0.023,0.0231,0.0232,0,0,-0.0285,-0.0287,-0.0289,-0.0299,-0.0272,-0.0268,-0.0254,-0.0221,-0.0204,-0.0147,-0.0115,-0.0043,0.0004,0.0044,0.0101,0.0153,0.0202,0.0194,0.0199,0.0246,0.0335,0.0375,0.0391,0.0227,0.0229,0.023,0.0373,0,-0.033,-0.037,-0.0351,-0.038,-0.0396,-0.0347,-0.0338,-0.0298,-0.0248,-0.0202,-0.0116,-0.0065,-0.0021,0.0011,0.0066,0.0172,0.0227,0.0162,0.035,0.0356,0.0387,0.0403,0.0427,0.0558,0.0384,0.0386,0.0387,0,-0.0377,-0.0398,-0.0441,-0.0447,-0.0447,-0.0451,-0.0419,-0.0402,-0.0321,-0.028,-0.0209,-0.0133,-0.0044,-0.0008,0.016,0.0117,0.0215,0.0297,0.0305,0.0382,0.0416,0.0548,0.0585,0.0742,0.0404,0.0403,0.0401,0,-0.043,-0.0457,-0.0495,-0.0499,-0.0496,-0.0497,-0.0484,-0.0425,-0.0407,-0.0321,-0.0288,-0.0172,-0.0101,0.0026,0.0194,0.018,0.0388,0.0392,0.0523,0.0528,0.0606,0.0615,0.0813,0.051,0.051,0.0509,0.0509,0,-0.0486,-0.0515,-0.0524,-0.0547,-0.0579,-0.0552,-0.0559,-0.0526,-0.047,-0.0441,-0.0332,-0.0271,-0.0088,0.0055,0.0191,0.0398,0.039,0.0529,0.0571,0.0577,0.0581,0.0768,0.0822,0.0515,0.0514,0.0513,0.0512,0,-0.054,-0.0547,-0.0592,-0.0605,-0.0608,-0.063,-0.062,-0.0614,-0.0557,-0.0514,-0.0487,-0.0329,-0.0138,0.0055,0.0288,0.0405,0.0692,0.0664,0.0659,0.0697,0.0943,0.0989,0.1227,0.1318,0.0825,0.0827,0.0829,0,-0.0573,-0.0603,-0.0641,-0.0662,-0.067,-0.0691,-0.0698,-0.0663,-0.0651,-0.0542,-0.0519,-0.0327,-0.0174,0.0183,0.0425,0.0687,0.0801,0.0859,0.0832,0.0976,0.1059,0.1089,0.115,0.0907,0.091,0.0911,0.0913,0,-0.0634,-0.0643,-0.0679,-0.0718,-0.074,-0.0749,-0.0754,-0.077,-0.071,-0.0672,-0.0549,-0.0415,-0.0061,0.0258,0.0598,0.0752,0.0971,0.0902,0.1063,0.1153,0.119,0.129,0.0793,0.0928,0.0926,0.0925,0.0924,0.0924,-0.0668,-0.0708,-0.0738,-0.076,-0.0765,-0.0754,-0.0738,-0.0758,-0.0735,-0.0645,-0.0561,-0.0345,0.0113,0.06,0.0782,0.1164,0.1123,0.1273,0.1323,0.1345,0.142,0.0953,0.1121,0.1121,0.112,0.112,0.112,0,-0.0707,-0.073,-0.0767,-0.0747,-0.07,-0.0723,-0.0713,-0.0668,-0.0626,-0.0625,-0.0499,-0.0051,0.0405,0.0824,0.1356,0.1572,0.1613,0.1681,0.1738,0.1784,0.1395,0.1386,0.1604,0.1604,0.1603,0.1603,0.1603,0.1603,-0.0727,-0.0768,-0.077,-0.0664,-0.063,-0.0551,-0.0534,-0.0496,-0.0462,-0.0336,-0.0165,-0.0019,0.056,0.1421,0.1925,0.1974,0.2159,0.2141,0.2246,0.1979,0.1944,0.1911,0.1918,0.2244,0.2245,0.2619,0.2623,0.2626]}],[{"header":{"parameterUnit":"m.s-1","parameterCategory":2,"la1":30.2991,"la2":30.254,"lo1":-89.0895,"lo2":-89.0444,"dy":0.0017,"dx":0.0017,"nx":28,"ny":28,"refTime":"2024-12-04T09:00:00:Z","depth":"2","parameterNumber":2,"parameterNumberName":"U-component_of_CURRENTS"},"data":[0,0,0,0,0,0,0,0,0,0,0,0,0,0,0,0,0,0,0,0,0,0,0,0,0,0,0,0,0,0,0,0,0,0,0,0,0,0,0,0,0,0,0,0,0,0,0,0,0,0,0,0,0,0,0,0,0,0,-0.2087,-0.2088,0,-0.2128,-0.2128,-0.2128,-0.2106,-0.2105,-0.2104,-0.2103,-0.2089,-0.209,-0.209,0,0,0,0,0,0,0,0,0,0,0,0,0,-0.2,-0.2002,-0.2087,-0.2088,-0.2088,-0.2128,-0.2128,-0.2129,-0.2106,-0.2105,-0.2104,-0.2103,-0.2089,-0.209,-0.209,0,0,0,0,0,0,0,0,0,0,0,0,0,-0.2037,-0.2002,-0.2087,-0.2084,-0.2084,-0.2128,-0.2128,-0.2129,-0.2106,-0.2105,-0.2103,-0.2102,-0.2089,-0.209,-0.209,-0.2122,0,0,-0.2093,-0.2093,0,0,0,0,0,0,0,0,-0.2035,-0.204,-0.2083,-0.2084,-0.2084,-0.2112,-0.2093,-0.2125,-0.2107,-0.2095,-0.2103,-0.2101,-0.2094,-0.2095,-0.2103,-0.2122,-0.2121,-0.2093,-0.2093,-0.2093,-0.2094,0,0,0,0,0,0,0,-0.2033,-0.2038,-0.2101,-0.2084,-0.2085,-0.2084,-0.2087,-0.2099,-0.2099,-0.2096,-0.2095,-0.2104,-0.2094,-0.2102,-0.2102,-0.2121,-0.2093,-0.2093,-0.2094,-0.2094,-0.2165,-0.2166,0,0,0,0,0,0,-0.2034,-0.2036,-0.21,-0.2102,-0.2058,-0.2087,-0.209,-0.2103,-0.21,-0.21,-0.2105,-0.2103,-0.2102,-0.2102,-0.2102,-0.2133,-0.2093,-0.2094,-0.2095,-0.2163,-0.2165,-0.2167,0,0,0,0,0,0,-0.2032,-0.2039,-0.2098,-0.2071,-0.2079,-0.209,-0.2104,-0.2104,-0.211,-0.2108,-0.2106,-0.211,-0.2101,-0.2101,-0.2117,-0.2132,-0.2094,-0.2095,-0.2162,-0.2164,-0.2166,-0.22,0,0,0,0,0,0,-0.2029,-0.2038,-0.2045,-0.2072,-0.2081,-0.213,-0.2106,-0.2106,-0.2119,-0.2116,-0.2112,-0.2109,-0.21,-0.2116,-0.2117,-0.2133,-0.2096,-0.216,-0.2163,-0.2165,-0.2197,-0.2203,-0.2208,0,0,0,0,0,-0.2026,-0.2047,-0.2046,-0.2053,-0.2091,-0.2131,-0.2136,-0.2136,-0.212,-0.2133,-0.2128,-0.2109,-0.2134,-0.2118,-0.2119,-0.2135,-0.2158,-0.2162,-0.2165,-0.2194,-0.2201,-0.2208,0,0,0,0,0,0,-0.2013,-0.2047,-0.2046,-0.2076,-0.2102,-0.2128,-0.2141,-0.2141,-0.215,-0.2142,-0.2129,-0.2128,-0.2148,-0.2143,-0.2126,-0.2165,-0.2143,-0.2147,-0.2165,-0.2172,-0.2177,-0.217,-0.2096,0,0,0,0,0,-0.2016,-0.2036,-0.207,-0.2091,-0.2106,-0.2123,-0.2137,-0.2143,-0.2156,-0.2157,-0.2155,-0.2156,-0.2167,-0.2168,-0.2178,-0.2201,-0.2188,-0.2213,-0.2219,-0.2224,-0.2221,-0.2221,-0.2226,-0.2177,-0.2177,-0.2177,0,0,-0.2016,-0.2037,-0.2048,-0.2089,-0.2106,-0.2137,-0.2127,-0.2157,-0.2176,-0.2156,-0.2175,-0.2178,-0.2179,-0.2203,-0.2211,-0.2197,-0.2233,-0.2228,-0.2231,-0.2226,-0.2225,-0.2229,-0.2233,-0.2179,-0.2179,-0.2179,0,0,-0.2029,-0.2047,-0.2068,-0.2096,-0.2132,-0.2149,-0.2159,-0.2191,-0.2196,-0.2225,-0.2213,-0.2225,-0.2242,-0.2245,-0.2247,-0.2293,-0.2265,-0.2298,-0.2315,-0.2316,-0.2319,-0.2322,-0.2314,-0.2316,-0.2297,-0.2297,-0.2297,0,-0.2025,-0.2056,-0.2081,-0.2112,-0.2133,-0.2155,-0.2183,-0.2205,-0.2235,-0.2243,-0.2235,-0.2263,-0.2262,-0.2285,-0.2298,-0.2303,-0.2294,-0.2286,-0.2321,-0.2323,-0.2326,-0.2317,-0.2318,-0.2299,-0.2299,-0.2298,-0.2298,0,-0.2054,-0.2081,-0.2099,-0.214,-0.217,-0.2201,-0.2237,-0.2261,-0.2269,-0.2284,-0.2311,-0.2317,-0.2326,-0.2336,-0.2328,-0.235,-0.2336,-0.2329,-0.2298,-0.2332,-0.2321,-0.2322,-0.2302,-0.2301,-0.23,-0.23,0,0,-0.2033,-0.2104,-0.2108,-0.2127,-0.2185,-0.2211,-0.2254,-0.2293,-0.231,-0.2338,-0.2355,-0.2379,-0.2375,-0.2378,-0.2376,-0.2377,-0.2387,-0.2359,-0.2358,-0.234,-0.238,-0.2309,-0.2303,-0.2382,-0.2382,-0.2382,-0.2367,0,-0.2041,-0.2095,-0.2131,-0.2176,-0.2204,-0.2244,-0.228,-0.2318,-0.2344,-0.237,-0.2382,-0.2399,-0.2394,-0.2396,-0.2401,-0.2392,-0.239,-0.2391,-0.2359,-0.2358,-0.2282,-0.2302,-0.2125,-0.2091,-0.2367,-0.2367,-0.2367,0,-0.2046,-0.2083,-0.2129,-0.2187,-0.2203,-0.2234,-0.2284,-0.232,-0.2368,-0.2387,-0.2411,-0.242,-0.2436,-0.2421,-0.2423,-0.2422,-0.2403,-0.2393,-0.2392,-0.2311,-0.2288,-0.2103,-0.2082,-0.2368,-0.2368,-0.2368,-0.2368,0,-0.2002,-0.2074,-0.2105,-0.2128,-0.2204,-0.2225,-0.226,-0.2316,-0.2344,-0.2392,-0.2411,-0.2436,-0.2443,-0.2436,-0.242,-0.2421,-0.2409,-0.2406,-0.2325,-0.232,-0.2154,-0.2133,-0.2398,-0.2398,-0.2398,-0.2398,-0.2398,0,-0.1988,-0.2009,-0.2086,-0.2104,-0.2135,-0.2197,-0.2231,-0.2273,-0.233,-0.2354,-0.2407,-0.2421,-0.2446,-0.2445,-0.2426,-0.2374,-0.2413,-0.2325,-0.231,-0.2162,-0.2144,-0.2372,-0.237,-0.2397,-0.2397,-0.2398,-0.2398,0,-0.1927,-0.1983,-0.2018,-0.2095,-0.2115,-0.2132,-0.2204,-0.2229,-0.2296,-0.2328,-0.2341,-0.2408,-0.2405,-0.2417,-0.2403,-0.2369,-0.2334,-0.2302,-0.2125,-0.2088,-0.2244,-0.2243,-0.2213,-0.221,-0.2208,-0.2206,-0.2205,0,-0.1897,-0.1912,-0.1989,-0.2005,-0.2036,-0.2078,-0.2104,-0.2189,-0.2217,-0.2306,-0.2308,-0.2343,-0.2328,-0.2299,-0.2245,-0.2192,-0.2267,-0.2008,-0.1977,-0.2236,-0.2225,-0.2228,-0.223,-0.1775,-0.177,-0.1766,-0.1763,0,-0.1826,-0.1856,-0.1887,-0.1922,-0.1951,-0.1987,-0.2031,-0.2047,-0.2139,-0.2169,-0.2191,-0.219,-0.218,-0.205,-0.2004,-0.1951,-0.2005,-0.1923,-0.223,-0.1854,-0.1822,-0.1812,-0.1829,-0.1726,-0.173,-0.1733,-0.1735,-0.1736,-0.1753,-0.1756,-0.1792,-0.1805,-0.1841,-0.1849,-0.1828,-0.1887,-0.1896,-0.19,-0.2001,-0.1944,-0.1949,-0.1778,-0.1699,-0.1642,-0.1779,-0.1703,-0.1715,-0.1732,-0.1689,-0.1655,-0.152,-0.1522,-0.1524,-0.1526,-0.1528,0,-0.1641,-0.1651,-0.1667,-0.1673,-0.1646,-0.1717,-0.1734,-0.1687,-0.1636,-0.169,-0.1682,-0.1527,-0.1452,-0.1468,-0.1323,-0.1303,-0.1288,-0.1252,-0.1233,-0.1269,-0.1301,-0.1236,-0.0947,-0.0946,-0.0944,-0.0943,0,0,-0.1581,-0.1541,-0.1541,-0.1445,-0.1458,-0.1377,-0.1353,-0.1322,-0.1318,-0.125,-0.123,-0.1354,-0.1406,-0.1171,-0.1123,-0.1012,-0.1125,-0.0958,-0.142,-0.1431,-0.1461,-0.1556,-0.1496,0,0,0,0,0]},{"header":{"parameterUnit":"m.s-1","parameterCategory":2,"la1":30.2991,"la2":30.254,"lo1":-89.0895,"lo2":-89.0444,"dy":0.0017,"dx":0.0017,"nx":28,"ny":28,"refTime":"2024-12-04T09:00:00:Z","depth":"2","parameterNumber":3,"parameterNumberName":"V-component_of_CURRENTS"},"data":[0,0,0,0,0,0,0,0,0,0,0,0,0,0,0,0,0,0,0,0,0,0,0,0,0,0,0,0,0,0,0,0,0,0,0,0,0,0,0,0,0,0,0,0,0,0,0,0,0,0,0,0,0,0,0,0,0,0,-0.013,-0.013,0,-0.0055,-0.0054,-0.0053,0.0006,0.0006,0.0006,0.0007,0.0128,0.0131,0.0134,0,0,0,0,0,0,0,0,0,0,0,0,0,-0.0178,-0.0178,-0.013,-0.0129,-0.0129,-0.0055,-0.0054,-0.0052,0.0006,0.0006,0.0006,0.0007,0.0127,0.0131,0.0134,0,0,0,0,0,0,0,0,0,0,0,0,0,-0.0133,-0.0177,-0.013,-0.0093,-0.0089,-0.0055,-0.0054,-0.0052,0.0005,0.0006,0.0006,0.0007,0.0126,0.013,0.0134,0.0151,0,0,0.0148,0.015,0,0,0,0,0,0,0,0,-0.0136,-0.0132,-0.0099,-0.0095,-0.0091,-0.0035,-0.0026,0.0017,0.0005,-0.0028,0.0007,0.0007,0.0076,0.0084,0.01,0.0157,0.0162,0.0148,0.0151,0.0153,0.0154,0,0,0,0,0,0,0,-0.0139,-0.0134,-0.0098,-0.0098,-0.0093,-0.0064,-0.0057,-0.0017,0.0023,-0.0025,-0.0021,-0.0016,0.0079,0.0095,0.0103,0.0164,0.0148,0.0152,0.0155,0.0156,0.0256,0.0256,0,0,0,0,0,0,-0.0156,-0.0137,-0.01,-0.0096,-0.0115,-0.0064,-0.0056,-0.0052,0.0021,0.0032,-0.0017,-0.0014,0.0088,0.0098,0.0108,0.0133,0.0153,0.0157,0.0159,0.0256,0.0256,0.0256,0,0,0,0,0,0,-0.0157,-0.0154,-0.0104,-0.0117,-0.0108,-0.0064,-0.0059,-0.0051,-0.0034,0.0027,0.0039,-0.0009,0.0089,0.0102,0.0141,0.0139,0.0159,0.0163,0.0256,0.0256,0.0256,0.0184,0,0,0,0,0,0,-0.0159,-0.0154,-0.0158,-0.0118,-0.0108,-0.0093,-0.006,-0.005,-0.0033,-0.0028,0.0037,0.0049,0.009,0.0134,0.0145,0.0145,0.0166,0.0255,0.0256,0.0256,0.0186,0.0181,0.0177,0,0,0,0,0,-0.0161,-0.0172,-0.0159,-0.0155,-0.0115,-0.0094,-0.0086,-0.0051,-0.0033,-0.0032,0.0015,0.0047,0.0142,0.0137,0.015,0.0151,0.0255,0.0256,0.0256,0.0188,0.0182,0.0177,0,0,0,0,0,0,-0.0195,-0.0166,-0.0151,-0.0153,-0.0129,-0.0085,-0.0082,-0.0057,-0.0019,-0.0012,0.0047,0.0062,0.0094,0.0133,0.0126,0.0181,0.0204,0.0207,0.0149,0.0144,0.0139,0.0128,0.017,0,0,0,0,0,-0.0206,-0.0206,-0.0173,-0.0174,-0.0166,-0.0124,-0.0112,-0.0088,-0.005,-0.0033,0.0012,0.0063,0.0105,0.0131,0.0171,0.0202,0.0242,0.0212,0.0208,0.0204,0.0204,0.0259,0.0259,0.0256,0.0256,0.0256,0,0,-0.0219,-0.0204,-0.0204,-0.0182,-0.0159,-0.0154,-0.0115,-0.0101,-0.0091,-0.0026,0.0002,0.0046,0.0108,0.014,0.0159,0.0173,0.0225,0.0204,0.0199,0.0203,0.0259,0.0259,0.026,0.0256,0.0256,0.0256,0,0,-0.0251,-0.0234,-0.0246,-0.0231,-0.0207,-0.018,-0.018,-0.0139,-0.0115,-0.0087,-0.0036,0.0007,0.0068,0.0115,0.0146,0.0143,0.0196,0.0155,0.0129,0.0182,0.0182,0.0183,0.0228,0.0234,0.0157,0.0157,0.0157,0,-0.027,-0.0277,-0.0246,-0.0253,-0.0246,-0.0197,-0.0206,-0.0175,-0.0126,-0.0105,-0.0089,0.0009,0.0058,0.0109,0.0108,0.0133,0.0168,0.0141,0.0175,0.0177,0.0179,0.0225,0.0232,0.0154,0.0154,0.0154,0.0155,0,-0.0307,-0.0312,-0.0319,-0.031,-0.0298,-0.0298,-0.0256,-0.0236,-0.0202,-0.0164,-0.0112,-0.0044,0.0016,0.0037,0.0074,0.0115,0.0136,0.0157,0.0184,0.0175,0.0224,0.0233,0.0149,0.015,0.0151,0.0152,0,0,-0.0349,-0.0347,-0.0349,-0.0357,-0.0329,-0.0324,-0.0306,-0.0273,-0.0258,-0.0201,-0.0172,-0.0095,-0.0053,-0.0014,0.004,0.009,0.0133,0.0125,0.0129,0.0161,0.0245,0.0268,0.028,0.0158,0.016,0.0161,0.0269,0,-0.0387,-0.042,-0.0401,-0.0424,-0.0436,-0.039,-0.0379,-0.034,-0.0293,-0.0252,-0.0168,-0.012,-0.0073,-0.0045,0.0011,0.0105,0.0154,0.0102,0.0256,0.0261,0.0276,0.0291,0.0256,0.0351,0.0278,0.028,0.0281,0,-0.0429,-0.0446,-0.0481,-0.0484,-0.0483,-0.0484,-0.0455,-0.0437,-0.0362,-0.0325,-0.0257,-0.0188,-0.0101,-0.0065,0.0089,0.0052,0.0139,0.0212,0.0219,0.0273,0.0301,0.0352,0.037,0.0296,0.0295,0.0294,0.0293,0,-0.0479,-0.0499,-0.053,-0.0533,-0.0526,-0.0527,-0.0514,-0.0459,-0.0444,-0.0365,-0.034,-0.0228,-0.0166,-0.0047,0.0105,0.0098,0.0275,0.0287,0.0392,0.0394,0.0413,0.0415,0.0393,0.0393,0.0393,0.0392,0.0392,0,-0.0529,-0.0553,-0.0558,-0.0578,-0.0608,-0.058,-0.0589,-0.0557,-0.0508,-0.0487,-0.0382,-0.0334,-0.0158,-0.0033,0.0095,0.0273,0.0271,0.0394,0.0428,0.0387,0.0385,0.0377,0.0373,0.0397,0.0396,0.0395,0.0394,0,-0.0581,-0.0583,-0.0623,-0.0632,-0.0636,-0.0657,-0.065,-0.065,-0.0597,-0.0565,-0.0542,-0.0402,-0.0235,-0.0056,0.0154,0.0263,0.0427,0.049,0.0426,0.0451,0.0512,0.0503,0.0615,0.0617,0.0619,0.062,0.0621,0,-0.0611,-0.0639,-0.0672,-0.0698,-0.0705,-0.0727,-0.0738,-0.07,-0.0694,-0.0603,-0.0588,-0.0425,-0.0296,0.0018,0.0241,0.0476,0.0479,0.0576,0.056,0.0515,0.0537,0.0526,0.0516,0.0557,0.0557,0.0557,0.0558,0,-0.0672,-0.0681,-0.0714,-0.0773,-0.08,-0.0824,-0.0832,-0.084,-0.0784,-0.0738,-0.0641,-0.053,-0.0225,0.0035,0.0337,0.0469,0.0533,0.0591,0.0578,0.05,0.0467,0.0486,0.0477,0.0561,0.0561,0.0561,0.056,0.056,-0.0712,-0.0753,-0.0798,-0.0852,-0.0893,-0.0921,-0.0945,-0.0917,-0.0896,-0.0804,-0.0688,-0.0495,-0.0246,0.0187,0.0401,0.0602,0.0599,0.0648,0.0644,0.064,0.0608,0.0579,0.0688,0.0689,0.0689,0.0689,0.069,0,-0.0766,-0.0812,-0.0873,-0.0949,-0.1015,-0.0997,-0.1014,-0.1011,-0.0982,-0.0812,-0.0686,-0.0413,-0.0102,0.0164,0.0485,0.0671,0.0654,0.0698,0.0635,0.0631,0.0627,0.0591,0.0669,0.067,0.067,0.0671,0,0,-0.0797,-0.0872,-0.091,-0.1043,-0.1093,-0.1147,-0.1153,-0.1105,-0.0996,-0.0838,-0.0658,-0.0417,-0.0096,0.0124,0.0357,0.0526,0.053,0.0541,0.0536,0.043,0.0424,0.0577,0.0515,0,0,0,0,0]}],[{"header":{"parameterUnit":"m.s-1","parameterCategory":2,"la1":30.2991,"la2":30.254,"lo1":-89.0895,"lo2":-89.0444,"dy":0.0017,"dx":0.0017,"nx":28,"ny":28,"refTime":"2024-12-04T09:00:00:Z","depth":"4","parameterNumber":2,"parameterNumberName":"U-component_of_CURRENTS"},"data":[0,0,0,0,0,0,0,0,0,0,0,0,0,0,0,0,0,0,0,0,0,0,0,0,0,0,0,0,0,0,0,0,0,0,0,0,0,0,0,0,0,0,0,0,0,0,0,0,0,0,0,0,0,0,0,0,0,0,-0.1498,-0.1499,0,-0.1565,-0.1566,-0.1567,-0.1598,-0.1598,-0.1599,-0.1599,-0.1653,-0.1654,-0.1656,0,0,0,0,0,0,0,0,0,0,0,0,0,-0.1414,-0.1415,-0.1498,-0.1499,-0.15,-0.1565,-0.1566,-0.1567,-0.1598,-0.1598,-0.1599,-0.1599,-0.1653,-0.1654,-0.1656,0,0,0,0,0,0,0,0,0,0,0,0,0,-0.1461,-0.1415,-0.1498,-0.1525,-0.1528,-0.1565,-0.1566,-0.1567,-0.1598,-0.1598,-0.1599,-0.1599,-0.1652,-0.1654,-0.1656,-0.1666,0,0,-0.1662,-0.1663,0,0,0,0,0,0,0,0,-0.1458,-0.1464,-0.152,-0.1523,-0.1526,-0.1575,-0.1556,-0.16,-0.1598,-0.157,-0.1599,-0.1599,-0.1627,-0.1631,-0.1641,-0.1668,-0.1671,-0.1663,-0.1664,-0.1665,-0.1665,0,0,0,0,0,0,0,-0.1455,-0.1461,-0.1523,-0.1521,-0.1525,-0.1539,-0.1546,-0.1565,-0.1595,-0.1572,-0.1575,-0.1585,-0.1628,-0.1639,-0.1643,-0.1672,-0.1662,-0.1664,-0.1666,-0.1666,-0.1775,-0.1777,0,0,0,0,0,0,-0.1449,-0.1458,-0.1521,-0.1525,-0.1494,-0.1541,-0.1548,-0.1558,-0.1596,-0.1602,-0.1585,-0.1586,-0.1636,-0.164,-0.1645,-0.1718,-0.1665,-0.1667,-0.1668,-0.1773,-0.1775,-0.1777,0,0,0,0,0,0,-0.1447,-0.1454,-0.1518,-0.1494,-0.1504,-0.1542,-0.1553,-0.1559,-0.1594,-0.1605,-0.1611,-0.1616,-0.1636,-0.1642,-0.1688,-0.1717,-0.1667,-0.1669,-0.1771,-0.1774,-0.1776,-0.1825,0,0,0,0,0,0,-0.1444,-0.1453,-0.147,-0.1494,-0.1505,-0.156,-0.1553,-0.1561,-0.1599,-0.1602,-0.1634,-0.1637,-0.1636,-0.1685,-0.169,-0.1719,-0.1671,-0.1769,-0.1773,-0.1775,-0.1822,-0.1829,-0.1836,0,0,0,0,0,-0.1441,-0.1463,-0.1471,-0.1479,-0.1524,-0.1561,-0.1569,-0.1595,-0.1601,-0.1625,-0.1647,-0.1638,-0.1708,-0.1688,-0.1694,-0.1724,-0.1768,-0.1772,-0.1775,-0.1818,-0.1828,-0.1835,0,0,0,0,0,0,-0.144,-0.1469,-0.1478,-0.1509,-0.1542,-0.1567,-0.1596,-0.161,-0.1647,-0.1657,-0.1661,-0.1667,-0.1718,-0.1718,-0.1695,-0.1766,-0.1736,-0.1741,-0.1767,-0.1776,-0.1782,-0.1774,-0.1673,0,0,0,0,0,-0.1447,-0.1469,-0.1499,-0.1527,-0.1545,-0.1574,-0.1597,-0.1617,-0.1646,-0.1664,-0.1686,-0.171,-0.1734,-0.1752,-0.1774,-0.1814,-0.1798,-0.1837,-0.1844,-0.185,-0.1848,-0.1853,-0.186,-0.1789,-0.1789,-0.1789,0,0,-0.1456,-0.1474,-0.1489,-0.1529,-0.1555,-0.159,-0.1589,-0.1635,-0.1668,-0.1664,-0.1724,-0.1739,-0.1751,-0.1796,-0.1819,-0.1802,-0.1863,-0.1855,-0.186,-0.1854,-0.1858,-0.1864,-0.187,-0.1792,-0.1792,-0.1791,0,0,-0.1475,-0.1502,-0.1524,-0.1555,-0.16,-0.162,-0.1639,-0.1682,-0.171,-0.1765,-0.1768,-0.1803,-0.1847,-0.1858,-0.1866,-0.1926,-0.1901,-0.1939,-0.1968,-0.1973,-0.1979,-0.1983,-0.197,-0.1973,-0.1941,-0.1942,-0.1942,0,-0.1487,-0.1515,-0.154,-0.1571,-0.1601,-0.1636,-0.1672,-0.1707,-0.1763,-0.1786,-0.1794,-0.186,-0.1873,-0.1912,-0.1933,-0.1941,-0.1933,-0.1932,-0.1981,-0.1985,-0.1988,-0.1974,-0.1976,-0.1944,-0.1944,-0.1944,-0.1943,0,-0.1513,-0.155,-0.157,-0.1617,-0.1654,-0.1695,-0.174,-0.1786,-0.1822,-0.1849,-0.191,-0.1932,-0.1964,-0.198,-0.1976,-0.2014,-0.1996,-0.1988,-0.1954,-0.1998,-0.1981,-0.1982,-0.1948,-0.1947,-0.1947,-0.1946,0,0,-0.15,-0.1573,-0.1583,-0.1612,-0.1683,-0.1712,-0.1777,-0.1833,-0.1871,-0.1929,-0.197,-0.2019,-0.2028,-0.2038,-0.2043,-0.2052,-0.2072,-0.2035,-0.2034,-0.2012,-0.2073,-0.1939,-0.1927,-0.2073,-0.2074,-0.2075,-0.205,0,-0.1515,-0.1572,-0.161,-0.1675,-0.1708,-0.1765,-0.1817,-0.1876,-0.1925,-0.1975,-0.2006,-0.2049,-0.2051,-0.2068,-0.2082,-0.2077,-0.208,-0.2079,-0.2042,-0.2041,-0.1908,-0.1926,-0.2077,-0.2051,-0.2051,-0.2051,-0.2051,0,-0.1518,-0.1558,-0.162,-0.1697,-0.1718,-0.1768,-0.1849,-0.1901,-0.1974,-0.2011,-0.2058,-0.208,-0.2116,-0.2105,-0.2119,-0.2119,-0.21,-0.209,-0.2089,-0.1944,-0.1909,-0.1999,-0.2054,-0.2054,-0.2053,-0.2053,-0.2053,0,-0.1474,-0.1561,-0.1609,-0.1639,-0.1734,-0.1778,-0.1832,-0.1913,-0.1954,-0.203,-0.206,-0.2108,-0.2129,-0.213,-0.2117,-0.2122,-0.211,-0.2111,-0.1971,-0.1962,-0.2068,-0.2064,-0.2108,-0.2108,-0.2109,-0.2109,-0.2109,0,-0.1454,-0.1496,-0.1598,-0.1624,-0.1685,-0.1761,-0.1827,-0.1886,-0.1963,-0.1994,-0.207,-0.2085,-0.2138,-0.2138,-0.2122,-0.204,-0.2113,-0.1968,-0.1944,-0.209,-0.2089,-0.2069,-0.2065,-0.2108,-0.2108,-0.2108,-0.2108,0,-0.139,-0.1461,-0.152,-0.1629,-0.1665,-0.1707,-0.1813,-0.1847,-0.1938,-0.1978,-0.2001,-0.2074,-0.2067,-0.2091,-0.2083,-0.2023,-0.1973,-0.1925,-0.2069,-0.2055,-0.1822,-0.1821,-0.1766,-0.1761,-0.1757,-0.1753,-0.175,0,-0.1358,-0.1385,-0.1505,-0.1534,-0.1587,-0.1664,-0.1706,-0.1817,-0.1844,-0.1943,-0.1938,-0.198,-0.2007,-0.188,-0.193,-0.188,-0.186,-0.1824,-0.1832,-0.1803,-0.1786,-0.1792,-0.1797,-0.1743,-0.1742,-0.1741,-0.174,0,-0.129,-0.1346,-0.1391,-0.1446,-0.1502,-0.1556,-0.1623,-0.1633,-0.1739,-0.1848,-0.1814,-0.1802,-0.1789,-0.1777,-0.1747,-0.1717,-0.1846,-0.178,-0.1789,-0.1796,-0.1775,-0.1764,-0.1774,-0.1725,-0.1727,-0.1729,-0.173,0,-0.1233,-0.1243,-0.1297,-0.1328,-0.1389,-0.1397,-0.1468,-0.1488,-0.1531,-0.1649,-0.1631,-0.1678,-0.1756,-0.169,-0.1664,-0.1622,-0.1604,-0.1556,-0.1577,-0.1594,-0.155,-0.1499,-0.1334,0,0,0,0,0,-0.1164,-0.1145,-0.1165,-0.1189,-0.1242,-0.1273,-0.1374,-0.1449,-0.1566,-0.1493,-0.1555,-0.1532,-0.1497,-0.153,-0.1449,-0.1594,-0.1614,-0.1495,-0.1571,-0.1644,-0.1661,-0.1627,0,0,0,0,0,0,-0.1108,-0.1125,-0.1113,-0.1046,-0.1037,-0.108,-0.1139,-0.1238,-0.1211,-0.1339,-0.1324,-0.1427,-0.1414,-0.1502,-0.1408,-0.1419,-0.1433,-0.1542,-0.1538,-0.1634,-0.165,-0.1663,-0.1634,0,0,0,0,0]},{"header":{"parameterUnit":"m.s-1","parameterCategory":2,"la1":30.2991,"la2":30.254,"lo1":-89.0895,"lo2":-89.0444,"dy":0.0017,"dx":0.0017,"nx":28,"ny":28,"refTime":"2024-12-04T09:00:00:Z","depth":"4","parameterNumber":3,"parameterNumberName":"V-component_of_CURRENTS"},"data":[0,0,0,0,0,0,0,0,0,0,0,0,0,0,0,0,0,0,0,0,0,0,0,0,0,0,0,0,0,0,0,0,0,0,0,0,0,0,0,0,0,0,0,0,0,0,0,0,0,0,0,0,0,0,0,0,0,0,-0.011,-0.0109,0,-0.0056,-0.0055,-0.0054,-0.0013,-0.0012,-0.0012,-0.0012,0.0086,0.0089,0.0091,0,0,0,0,0,0,0,0,0,0,0,0,0,-0.0139,-0.0139,-0.011,-0.0109,-0.0109,-0.0056,-0.0055,-0.0054,-0.0013,-0.0012,-0.0012,-0.0012,0.0085,0.0088,0.0091,0,0,0,0,0,0,0,0,0,0,0,0,0,-0.0108,-0.0139,-0.011,-0.0083,-0.008,-0.0056,-0.0055,-0.0054,-0.0013,-0.0012,-0.0012,-0.0012,0.0085,0.0088,0.0092,0.0108,0,0,0.0103,0.0104,0,0,0,0,0,0,0,0,-0.011,-0.0107,-0.0088,-0.0085,-0.0082,-0.0042,-0.003,0.0002,-0.0013,-0.0036,-0.0012,-0.0012,0.0046,0.0053,0.0064,0.0112,0.0116,0.0103,0.0105,0.0107,0.0108,0,0,0,0,0,0,0,-0.0112,-0.0109,-0.0086,-0.0087,-0.0084,-0.0061,-0.0057,-0.0023,0.0005,-0.0034,-0.0031,-0.0029,0.0048,0.0061,0.0067,0.0118,0.0103,0.0106,0.0108,0.011,0.0201,0.0201,0,0,0,0,0,0,-0.0125,-0.0111,-0.0088,-0.0085,-0.0098,-0.0061,-0.0056,-0.0054,0.0004,0.0012,-0.0029,-0.0027,0.0054,0.0063,0.0071,0.0098,0.0107,0.011,0.0112,0.0201,0.0201,0.0201,0,0,0,0,0,0,-0.0126,-0.0124,-0.009,-0.0098,-0.0093,-0.0062,-0.0059,-0.0053,-0.0041,0.0006,0.0016,-0.0024,0.0055,0.0066,0.0099,0.0102,0.0112,0.0115,0.0201,0.0201,0.0201,0.0149,0,0,0,0,0,0,-0.0127,-0.0125,-0.0129,-0.0099,-0.0093,-0.0083,-0.0059,-0.0052,-0.0041,-0.0038,0.0014,0.0023,0.0056,0.0094,0.0103,0.0107,0.0118,0.02,0.0201,0.0201,0.0151,0.0148,0.0145,0,0,0,0,0,-0.0129,-0.0138,-0.0129,-0.0127,-0.0099,-0.0084,-0.0078,-0.0053,-0.0041,-0.004,-0.0003,0.0022,0.0103,0.0096,0.0107,0.0113,0.02,0.0201,0.0201,0.0152,0.0148,0.0145,0,0,0,0,0,0,-0.0152,-0.0134,-0.0124,-0.0127,-0.011,-0.0078,-0.0076,-0.0058,-0.0028,-0.0024,0.0024,0.0036,0.0066,0.0097,0.0088,0.0141,0.0157,0.0159,0.0115,0.0112,0.011,0.0098,0.0121,0,0,0,0,0,-0.0161,-0.0163,-0.014,-0.0143,-0.0137,-0.0107,-0.0098,-0.0082,-0.0052,-0.0039,-0.0003,0.0039,0.0077,0.0099,0.0134,0.0162,0.0191,0.0174,0.0172,0.0169,0.0167,0.0215,0.0216,0.0203,0.0203,0.0203,0,0,-0.0171,-0.0162,-0.0163,-0.0148,-0.0133,-0.0128,-0.0101,-0.0092,-0.0082,-0.0032,-0.0009,0.0028,0.0081,0.0112,0.0129,0.0139,0.0186,0.017,0.0167,0.0167,0.0215,0.0217,0.0218,0.0204,0.0204,0.0204,0,0,-0.0194,-0.0185,-0.0194,-0.0184,-0.0168,-0.0148,-0.0149,-0.0119,-0.01,-0.0075,-0.0034,0.0004,0.0056,0.0097,0.0125,0.013,0.0167,0.0141,0.0123,0.0168,0.0169,0.0171,0.0197,0.0201,0.0144,0.0144,0.0144,0,-0.0209,-0.0215,-0.0195,-0.0199,-0.0196,-0.016,-0.0167,-0.0142,-0.0104,-0.0088,-0.0076,0.0008,0.0051,0.0099,0.0102,0.0124,0.0148,0.0127,0.0164,0.0166,0.0168,0.0195,0.02,0.0141,0.0141,0.0142,0.0142,0,-0.0235,-0.024,-0.0246,-0.0239,-0.0232,-0.0232,-0.02,-0.0185,-0.016,-0.013,-0.0086,-0.0026,0.0023,0.0046,0.0077,0.0118,0.0127,0.0149,0.0167,0.0166,0.0194,0.0201,0.0138,0.0139,0.0139,0.014,0,0,-0.0265,-0.0265,-0.0268,-0.0275,-0.0254,-0.0253,-0.0237,-0.0211,-0.0202,-0.0153,-0.0133,-0.0059,-0.0027,0.0007,0.0054,0.01,0.0136,0.0127,0.0131,0.0144,0.0222,0.0198,0.0203,0.0163,0.0164,0.0165,0.0229,0,-0.0292,-0.0316,-0.0304,-0.0322,-0.0332,-0.03,-0.0291,-0.0262,-0.0227,-0.0198,-0.0125,-0.0087,-0.0041,-0.002,0.0033,0.0111,0.0153,0.0115,0.0229,0.0232,0.0204,0.021,0.0168,0.0235,0.0236,0.0237,0.0238,0,-0.0321,-0.0335,-0.0362,-0.0369,-0.037,-0.0374,-0.0358,-0.0344,-0.0288,-0.0261,-0.0205,-0.015,-0.0074,-0.0038,0.0092,0.0064,0.0135,0.0196,0.02,0.0202,0.0221,0.0242,0.025,0.0249,0.0248,0.0248,0.0247,0,-0.0357,-0.0375,-0.0401,-0.0403,-0.0403,-0.0409,-0.0404,-0.0366,-0.0357,-0.03,-0.0286,-0.0189,-0.0141,-0.0036,0.0089,0.0091,0.0226,0.0247,0.0293,0.0292,0.0316,0.0314,0.0336,0.0336,0.0336,0.0336,0.0336,0,-0.0388,-0.0411,-0.0424,-0.044,-0.0473,-0.0454,-0.0473,-0.0451,-0.042,-0.0411,-0.0324,-0.0291,-0.0137,-0.0039,0.0073,0.0197,0.0216,0.0288,0.031,0.0291,0.0286,0.032,0.0317,0.0338,0.0338,0.0337,0.0337,0,-0.0421,-0.0427,-0.0465,-0.0483,-0.0493,-0.0517,-0.053,-0.0538,-0.0502,-0.0488,-0.0472,-0.0361,-0.0235,-0.0087,0.0088,0.0167,0.0293,0.0334,0.0286,0.0305,0.033,0.0324,0.0385,0.0385,0.0385,0.0385,0.0384,0,-0.0439,-0.0461,-0.0506,-0.0539,-0.0552,-0.0583,-0.0604,-0.0583,-0.0583,-0.0527,-0.0519,-0.0403,-0.0315,-0.009,0.0065,0.0264,0.0296,0.035,0.0355,0.0321,0.0337,0.0331,0.0325,0.0384,0.0384,0.0384,0.0384,0,-0.0477,-0.0496,-0.0528,-0.0596,-0.0635,-0.0672,-0.0693,-0.0696,-0.0662,-0.0633,-0.0549,-0.0425,-0.0285,-0.0099,0.0053,0.0199,0.0308,0.0348,0.035,0.0356,0.032,0.0335,0.033,0.0383,0.0383,0.0383,0.0383,0,-0.0508,-0.0543,-0.0593,-0.0649,-0.0711,-0.0749,-0.0745,-0.0729,-0.0716,-0.0637,-0.0609,-0.0446,-0.0341,-0.0133,0.0009,0.0145,0.0183,0.0224,0.0233,0.0235,0.0174,0.0106,0.012,0,0,0,0,0,-0.0536,-0.058,-0.0642,-0.0708,-0.0772,-0.0796,-0.0806,-0.0786,-0.0745,-0.0692,-0.0646,-0.051,-0.0289,-0.0185,-0.0052,-0.0004,0.0194,0.0153,0.0241,0.038,0.038,0.0332,0,0,0,0,0,0,-0.0558,-0.062,-0.065,-0.0752,-0.0801,-0.0859,-0.086,-0.0823,-0.0773,-0.0711,-0.0584,-0.0502,-0.0278,-0.0374,-0.0061,-0.0018,0.0052,0.0267,0.0269,0.0379,0.038,0.0381,0.0331,0,0,0,0,0]}]]